Tracking 18852 objects as of 24-Nov-2017
HD Live streaming from Space Station
objects crossing your sky now

FENGYUN 1C DEB

Track FENGYUN 1C DEB now!
10-day predictions


NORAD ID: 37051
Int'l Code: 1999-025EEK
Perigee: 506.7 km
Apogee: 530.0 km
Inclination: 98.9 °
Period: 94.8 minutes
Semi major axis: 6889 km
RCS: 0.0014 m2 (small)
Launch date: May 10, 1999
Source: People's Republic of China (PRC)
Launch site: Taiyaun Space Center, China (TSC)

Note: This is SATELLITE DEBRIS
aabbcc
Your satellite tracking list
Your tracking list is empty




NASA's NSSDC Master Catalog

Two Line Element Set (TLE):
1 37051U 99025EEK 17328.24739709  .00053823  00000-0  26062-2 0  9992
2 37051  98.9221 253.6574 0016916 343.5466  16.5212 15.18237102439255
Source of the keplerian elements: AFSPC